This demonstration page uses our WeatherBlox Daily Observations layout. Learn more.

36.19886, -115.1175

Hourly Observations for May 17, 2018

Temp ( °F °C ) Dew Point ( °F °C ) Humidity (%) Winds ( mph kmh ) Pressure ( in mb ) Visibility ( mi km ) Precip ( " mm )
12:53 am 00:53 Clear 76 24.4 17 -8.3 11 11 SSW 10 17 29.77 1008 10 16.09344 0 0
1:53 am 01:53 Clear 74 23.3 24 -4.4 15 15 SSW 13 20 29.74 1007 10 16.09344 0 0
2:53 am 02:53 Clear 73 22.8 26 -3.3 17 17 WSW 18 30 29.71 1006 10 16.09344 0 0
3:53 am 03:53 Clear 71 21.7 26 -3.3 19 19 S 16 26 29.74 1007 10 16.09344 0 0
4:53 am 04:53 Clear 70 21.1 26 -3.3 19 19 SW 17 28 29.71 1006 10 16.09344 0 0
5:53 am 05:53 Sunny 69 20.6 26 -3.3 20 20 W 6 9 29.74 1007 10 16.09344 0 0
6:53 am 06:53 Sunny 69 20.6 27 -2.8 21 21 N 7 11 29.77 1008 10 16.09344 0 0
7:53 am 07:53 Sunny 74 23.3 25 -3.9 16 16 NW 18 30 29.77 1008 10 16.09344 0 0
8:53 am 08:53 Sunny 76 24.4 25 -3.9 15 15 NNW 15 24 29.8 1009 10 16.09344 0 0
9:53 am 09:53 Sunny 79 26.1 23 -5 12 12 NW 17 28 29.8 1009 10 16.09344 0 0
10:53 am 10:53 Sunny 80 26.7 19 -7.2 10 10 Calm 29.8 1009 10 16.09344 0 0
11:53 am 11:53 Sunny 81 27.2 19 -7.2 10 10 N 3 6 29.77 1008 10 16.09344 0 0
12:53 pm 12:53 Sunny 84 28.9 17 -8.3 8 8 N 6 9 29.77 1008 10 16.09344 0 0
1:53 pm 13:53 Sunny 85 29.4 18 -7.8 8 8 SW 13 20 29.74 1007 10 16.09344 0 0
2:53 pm 14:53 Sunny 86 30 18 -7.8 8 8 N 5 7 29.74 1007 10 16.09344 0 0
3:53 pm 15:53 Sunny 86 30 20 -6.7 9 9 undefined N/A 29.71 1006 10 16.09344 0 0
4:53 pm 16:53 Sunny 86 30 18 -7.8 8 8 N 5 7 29.68 1005 10 16.09344 0 0
5:53 pm 17:53 Sunny 85 29.4 15 -9.4 7 7 N 6 9 29.68 1005 10 16.09344 0 0
6:53 pm 18:53 Sunny 85 29.4 14 -10 7 7 NW 10 17 29.68 1005 10 16.09344 0 0
7:53 pm 19:53 Clear 83 28.3 14 -10 7 7 NNW 9 15 29.68 1005 10 16.09344 0 0
8:53 pm 20:53 Clear 81 27.2 20 -6.7 10 10 W 15 24 29.68 1005 10 16.09344 0 0
9:53 pm 21:53 Clear 80 26.7 20 -6.7 10 10 W 16 26 29.71 1006 10 16.09344 0 0
10:53 pm 22:53 Clear 77 25 21 -6.1 12 12 NNW 6 9 29.71 1006 10 16.09344 0 0
11:53 pm 23:53 Clear 77 25 19 -7.2 11 11 WNW 10 17 29.71 1006 10 16.09344 0 0

Powered by AerisWeather